Regional Weather Roundup
Issued by NWS

Home | Current Version | Previous Version | Text Only | Print | Product List | Glossary Off
Versions: 1 2 3 4 5 6 7 8 9 10 11 12 13 14 15 16 17 18 19 20 21 22 23 24 25 26 27 28 29 30 31 32 33 34 35 36 37 38 39 40 41 42 43 44 45 46 47 48 49 50

868
ASUS43 KTOP 291308
RWRKS

WEATHER ROUNDUP FOR KANSAS
NATIONAL WEATHER SERVICE GOODLAND KS
800 AM CDT FRI APR 29 2016

NOTE:  "FAIR" INDICATES FEW OR NO CLOUDS BELOW 12,000 FEET WITH NO
SIGNIFICANT WEATHER AND/OR OBSTRUCTIONS TO VISIBILITY.

KSZ001>006-013>018-027>032-041>047-291400-
NORTHWEST KANSAS

CITY           SKY/WX    TMP DP  RH WIND       PRES   REMARKS
GOODLAND       LGT RAIN  39  38  96 NE13      29.98F WCI  31
HAYS           CLOUDY    45  36  70 E18       30.00R
HILL CITY      CLOUDY    44  42  93 NE16      30.02R
RUSSELL        CLOUDY    44  42  93 NE14      29.97S
$$

KSZ061>065-074>080-084>089-291400-
SOUTHWEST KANSAS

CITY           SKY/WX    TMP DP  RH WIND       PRES   REMARKS
DODGE CITY     RAIN      43  42  97 E21       29.91R FOG
ELKHART          N/A     43  41  93 NE17        N/A
GARDEN CITY    HVY RAIN  43  41  93 NE22G30   29.91R FOG
GREAT BEND     CLOUDY    45  37  76 E24       29.96F
PRATT          LGT RAIN  42  41  96 NE23G29   29.95F
$$

KSZ066>073-081>083-090>101-291400-
SOUTHEAST KANSAS

CITY           SKY/WX    TMP DP  RH WIND       PRES   REMARKS
CHANUTE        CLOUDY    51  44  77 E12G24    29.96F
COFFEYVILLE    CLOUDY    54  47  77 E16G28    29.94R
HUTCHINSON     LGT RAIN  47  45  93 N14G26    29.99R
MEDICINE LODGE   N/A     48  46  93 NE23G36   29.92F
NEWTON         CLOUDY    46  39  76 NE16G25   29.99S
PARSONS        CLOUDY    53  47  79 E12G23    29.95R
WICHITA INTL   RAIN      50  45  83 N15G24    29.97R
WICHITA JABRA  LGT RAIN  48  45  89 NE20G30   29.96R
WICHITA MCCONL LGT RAIN  49  45  86 NE16G22   29.97R
WINFIELD       LGT RAIN  51  47  86 E13       29.92R
$$

KSZ007>012-019>026-033>040-048>060-102>105-291400-
NORTHEAST KANSAS

CITY           SKY/WX    TMP DP  RH WIND       PRES   REMARKS
CONCORDIA      CLOUDY    45  40  82 NE8       30.04F
EMPORIA        CLOUDY    48  43  82 NE17G23   29.99R
LAWRENCE       CLOUDY    48  43  82 NE5       30.05R
MANHATTAN      CLOUDY    48  40  73 NE16G22   30.04R
MARYSVILLE     CLOUDY    45  41  87 NE9       30.07R
OLATHE IND     PTSUNNY   49  43  80 NE7       30.05R
OLATHE EXE     MOSUNNY   48  42  80 NE13G18   30.04R
SALINA         RAIN      47  45  93 N9        30.04R FOG
TOPEKA BILLARD CLOUDY    48  41  76 NE13      30.05R
TOPEKA FORBES  CLOUDY    49  42  77 NE9       30.05R
$$




USA.gov is the U.S. government's official web portal to all federal, state and local government web resources and services.